Погода в Самборе

Украина / Львовская область     49°31′18″N   23°11′56″E
темп.,
°C
ветер,
м/с
пор.,
м/с
влажн.,
%
обл.,
%
осадки,
мм/ч
давл.,
гПа
погр.,
м
16 октября, сб
сб1600:00+4ююз33715 0.0 101942
03:00+5юз336612 0.0 101848
06:00+8юз3561100 0.0 1018153
09:00+9зсз497778 0.0 1019549
12:00+11сз46615 0.0 10201061
15:00+12сз45515 0.0 10191413
18:00+9ссз356410 0.0 1020107
21:00+5зсз34885 0.0 102261
17 октября, вс
вс1700:00+4зюз22915 0.0 102314
03:00+3зюз22915 0.0 102313
06:00+3зюз22905 0.0 102311
09:00+4юз228510 0.0 102337
12:00+9сз125981 0.0 1022821
15:00+12сз245016 0.0 10201194
18:00+9с2261100 0.0 102018
21:00+6ю227064 0.0 102110
18 октября, пн
пн1800:00+6ююз2275100 0.0 102111
03:00+6юз2276100 0.0 102117
06:00+5юз3482100 0.0 102150
09:00+7зюз2377100 0.0 102291
12:00+10з5761100 0.0 1023906
15:00+11зсз6859100 0.0 10221126
18:00+9з4969100 0.0 1023692
21:00+9з51278100 0.1 1023653
19 октября, вт
вт1900:00+8зсз61286100 0.7 1024801
03:00+8зсз4893100 1.7 1025599
06:00+8ссз3594100 0.9 1026303
09:00+7всв128999 1.1 1028156
12:00+8юв007399 0.0 1029467
15:00+9юз1176100 0.0 1028406
18:00+9ю118260 0.0 102748
21:00+8юв2387100 0.0 102774
20 октября, ср
ср2000:00+8юв238987 0.0 102654
03:00+6ю2289100 0.0 102534
06:00+7ю377998 0.0 1024141
09:00+9ююз5136932 0.0 1022510
12:00+14юз8135369 0.0 1021770
15:00+13юз71553100 0.0 1019684
18:00+13юз81754100 0.0 1017585
21:00+13юз81750100 0.0 1015659